sat.trackr.live / text

‹ back to catalog

STARLINK-34736

NORAD 64846 · 2025-152E

PAYLOAD ACTIVE UNKNOWN

§ Identity

Operator
Country
US
Launch date
2025-07-19
Launch site
AFWTR
Launch vehicle
Mass (kg)
RCS (m²)

Purposes: comms

External: N2YO · Heavens-Above · Gunter

§ Orbital elements

Epoch: 2026-09-20T13:17:35.514528Z

Period
93.91 min
Inclination
97.2834°
Eccentricity
0.0001471
Mean motion
15.33456791 rev/d
Perigee alt
464.5 km
Apogee alt
466.5 km
Semi-major
6,843.6 km
B*
2.6861e-4
RAAN
114.1258°
Arg perigee
83.0210°
Mean anomaly
277.1200°
Rev number
6,483

§ Raw data

STARLINK-347361 64846U 25152E   26263.55388327  .00008610  00000+0  26861-3 0  99932 64846  97.2834 114.1258 0001471  83.0210 277.1200 15.33456791 64836

JSON: /api/v1/satellites/64846 · /tle

For live sub-satellite position, see the globe view (requires WebGL).

§ Visibility from observer

Set your observer location to see the next 7 days of passes ≥ 10°. The values pass through the URL so the page stays shareable.

No JS? Fill the form by hand. The geolocation button needs JavaScript.